Time,TemperatureF,DewpointF,PressureIn,WindDirection,WindDirectionDegrees,WindSpeedMPH,WindSpeedGustMPH,Humidity,HourlyPrecipIn,Conditions,Clouds,dailyrainin,SoftwareType,DateUTC
2013-03-10 00:04:00,48.2,39.9,30.25,SW,225,1.3,2.5,73,0.00,,,0.00,WUHU216HW,2013-03-10 08:04:00,
2013-03-10 00:09:00,48.2,39.9,30.24,SW,225,1.3,2.5,73,0.00,,,0.00,WUHU216HW,2013-03-10 08:09:00,
2013-03-10 00:14:00,48.2,39.9,30.25,SW,225,1.8,1.8,73,0.00,,,0.00,WUHU216HW,2013-03-10 08:14:00,
2013-03-10 00:19:00,48.2,39.6,30.24,SW,225,1.6,1.8,72,0.00,,,0.00,WUHU216HW,2013-03-10 08:19:00,
2013-03-10 00:24:00,48.4,39.8,30.24,WSW,248,1.6,1.8,72,0.00,,,0.00,WUHU216HW,2013-03-10 08:24:00,
2013-03-10 00:29:00,48.4,39.8,30.25,WSW,248,1.6,1.8,72,0.00,,,0.00,WUHU216HW,2013-03-10 08:29:00,
2013-03-10 00:35:00,48.6,40.0,30.25,WSW,248,1.1,1.8,72,0.00,,,0.00,WUHU216HW,2013-03-10 08:35:00,
2013-03-10 00:40:00,48.6,40.0,30.25,WSW,248,1.3,2.2,72,0.00,,,0.00,WUHU216HW,2013-03-10 08:40:00,
2013-03-10 00:45:00,48.4,39.4,30.25,WSW,248,1.3,2.0,71,0.00,,,0.00,WUHU216HW,2013-03-10 08:45:00,
2013-03-10 00:50:00,48.4,39.4,30.26,WSW,248,2.5,2.5,71,0.00,,,0.00,WUHU216HW,2013-03-10 08:50:00,
2013-03-10 00:55:00,48.6,39.6,30.25,WSW,248,2.2,2.5,71,0.00,,,0.00,WUHU216HW,2013-03-10 08:55:00,
2013-03-10 01:00:00,48.6,39.2,30.25,WSW,248,1.8,2.2,70,0.00,,,0.00,WUHU216HW,2013-03-10 09:00:00,
2013-03-10 01:05:00,48.8,39.4,30.25,WSW,248,1.6,2.2,70,0.00,,,0.00,WUHU216HW,2013-03-10 09:05:00,
2013-03-10 01:10:00,48.6,39.2,30.26,WSW,248,1.8,2.5,70,0.00,,,0.00,WUHU216HW,2013-03-10 09:10:00,
2013-03-10 01:15:00,48.6,39.2,30.25,WSW,248,1.8,2.5,70,0.00,,,0.00,WUHU216HW,2013-03-10 09:15:00,
2013-03-10 01:20:00,48.6,39.2,30.25,SW,225,0.9,1.8,70,0.00,,,0.00,WUHU216HW,2013-03-10 09:20:00,
2013-03-10 01:25:00,48.4,39.1,30.24,SSW,203,1.3,1.6,70,0.00,,,0.00,WUHU216HW,2013-03-10 09:25:00,
2013-03-10 01:31:00,48.4,38.7,30.24,SW,225,1.1,1.6,69,0.00,,,0.00,WUHU216HW,2013-03-10 09:31:00,
2013-03-10 01:36:00,48.4,38.7,30.24,SW,225,0.9,1.6,69,0.00,,,0.00,WUHU216HW,2013-03-10 09:36:00,
2013-03-10 01:41:00,48.4,38.7,30.23,WSW,248,0.9,1.6,69,0.00,,,0.00,WUHU216HW,2013-03-10 09:41:00,
2013-03-10 01:46:00,48.4,38.7,30.23,WSW,248,1.1,1.1,69,0.00,,,0.00,WUHU216HW,2013-03-10 09:46:00,
2013-03-10 01:51:00,48.4,38.7,30.24,WSW,248,1.6,1.8,69,0.00,,,0.00,WUHU216HW,2013-03-10 09:51:00,
2013-03-10 01:56:00,48.4,38.7,30.25,WSW,248,1.8,1.8,69,0.00,,,0.00,WUHU216HW,2013-03-10 09:56:00,
2013-03-10 03:01:00,48.4,38.7,30.25,WSW,248,1.6,1.8,69,0.00,,,0.00,WUHU216HW,2013-03-10 10:01:00,
2013-03-10 03:06:00,48.4,38.4,30.25,WSW,248,1.6,2.5,68,0.00,,,0.00,WUHU216HW,2013-03-10 10:06:00,
2013-03-10 03:11:00,48.6,38.5,30.24,WSW,248,1.8,2.5,68,0.00,,,0.00,WUHU216HW,2013-03-10 10:11:00,
2013-03-10 03:16:00,48.6,38.5,30.24,WSW,248,1.8,1.8,68,0.00,,,0.00,WUHU216HW,2013-03-10 10:16:00,
2013-03-10 03:21:00,48.6,38.5,30.24,WSW,248,0.4,1.8,68,0.00,,,0.00,WUHU216HW,2013-03-10 10:21:00,
2013-03-10 03:26:00,48.4,38.4,30.24,SW,225,0.4,1.3,68,0.00,,,0.00,WUHU216HW,2013-03-10 10:26:00,
2013-03-10 03:32:00,48.2,38.2,30.22,SW,225,0.7,1.3,68,0.00,,,0.00,WUHU216HW,2013-03-10 10:32:00,
2013-03-10 03:37:00,48.1,38.4,30.23,SW,225,1.1,1.1,69,0.00,,,0.00,WUHU216HW,2013-03-10 10:37:00,
2013-03-10 03:42:00,47.9,38.2,30.23,SW,225,0.4,1.1,69,0.00,,,0.00,WUHU216HW,2013-03-10 10:42:00,
2013-03-10 03:47:00,47.7,38.4,30.23,SW,225,0.9,1.1,70,0.00,,,0.00,WUHU216HW,2013-03-10 10:47:00,
2013-03-10 03:52:00,47.5,38.3,30.24,SSW,203,0.7,1.1,70,0.00,,,0.00,WUHU216HW,2013-03-10 10:52:00,
2013-03-10 03:57:00,47.2,37.9,30.24,WSW,248,1.8,1.8,70,0.00,,,0.00,WUHU216HW,2013-03-10 10:57:00,
2013-03-10 04:02:00,47.2,37.9,30.25,WSW,248,1.3,1.8,70,0.00,,,0.00,WUHU216HW,2013-03-10 11:02:00,
2013-03-10 04:07:00,47.3,38.1,30.25,SW,225,0.4,1.6,70,0.00,,,0.00,WUHU216HW,2013-03-10 11:07:00,
2013-03-10 04:12:00,47.3,38.1,30.24,SW,225,1.1,1.3,70,0.00,,,0.00,WUHU216HW,2013-03-10 11:12:00,
2013-03-10 04:17:00,47.3,37.7,30.23,WSW,248,2.0,2.5,69,0.00,,,0.00,WUHU216HW,2013-03-10 11:17:00,
2013-03-10 04:22:00,47.5,37.9,30.25,WSW,248,1.1,2.5,69,0.00,,,0.00,WUHU216HW,2013-03-10 11:22:00,
2013-03-10 04:27:00,47.9,37.8,30.24,WSW,248,2.5,2.5,68,0.00,,,0.00,WUHU216HW,2013-03-10 11:27:00,
2013-03-10 04:32:00,48.1,38.0,30.24,WSW,248,2.5,2.5,68,0.00,,,0.00,WUHU216HW,2013-03-10 11:32:00,
2013-03-10 04:37:00,48.4,37.9,30.25,SW,225,1.8,2.5,67,0.00,,,0.00,WUHU216HW,2013-03-10 11:37:00,
2013-03-10 04:43:00,48.4,37.5,30.23,SW,225,1.8,2.5,66,0.00,,,0.00,WUHU216HW,2013-03-10 11:43:00,
2013-03-10 04:48:00,48.4,37.5,30.24,WSW,248,1.6,1.8,66,0.00,,,0.00,WUHU216HW,2013-03-10 11:48:00,
2013-03-10 04:53:00,48.4,37.5,30.24,SW,225,1.3,1.8,66,0.00,,,0.00,WUHU216HW,2013-03-10 11:53:00,
2013-03-10 04:58:00,48.4,37.5,30.24,SW,225,1.1,1.8,66,0.00,,,0.00,WUHU216HW,2013-03-10 11:58:00,
2013-03-10 05:03:00,48.2,37.0,30.23,SW,225,1.1,1.8,65,0.00,,,0.00,WUHU216HW,2013-03-10 12:03:00,
2013-03-10 05:08:00,48.4,37.2,30.24,SSW,203,0.2,1.8,65,0.00,,,0.00,WUHU216HW,2013-03-10 12:08:00,
2013-03-10 05:13:00,48.4,37.2,30.25,WSW,248,0.9,1.8,65,0.00,,,0.00,WUHU216HW,2013-03-10 12:13:00,
2013-03-10 05:18:00,48.4,36.8,30.24,SSW,203,1.1,1.1,64,0.00,,,0.00,WUHU216HW,2013-03-10 12:18:00,
2013-03-10 05:23:00,48.6,37.4,30.24,SSW,203,0.7,1.3,65,0.00,,,0.00,WUHU216HW,2013-03-10 12:23:00,
2013-03-10 05:28:00,48.6,37.4,30.24,SSW,203,0.9,1.3,65,0.00,,,0.00,WUHU216HW,2013-03-10 12:28:00,
2013-03-10 05:33:00,48.6,37.0,30.24,SW,225,1.6,1.6,64,0.00,,,0.00,WUHU216HW,2013-03-10 12:33:00,
2013-03-10 05:38:00,48.6,36.5,30.24,SW,225,1.3,1.6,63,0.00,,,0.00,WUHU216HW,2013-03-10 12:38:00,
2013-03-10 05:44:00,48.6,36.5,30.25,SW,225,1.1,1.6,63,0.00,,,0.00,WUHU216HW,2013-03-10 12:44:00,
2013-03-10 05:49:00,48.6,36.5,30.22,SW,225,1.1,1.6,63,0.00,,,0.00,WUHU216HW,2013-03-10 12:49:00,
2013-03-10 05:54:00,48.8,36.7,30.23,SW,225,1.1,1.6,63,0.00,,,0.00,WUHU216HW,2013-03-10 12:54:00,
2013-03-10 05:59:00,49.0,36.9,30.24,SW,225,2.0,2.0,63,0.00,,,0.00,WUHU216HW,2013-03-10 12:59:00,
2013-03-10 06:04:00,49.0,36.9,30.23,WSW,248,1.8,2.0,63,0.00,,,0.00,WUHU216HW,2013-03-10 13:04:00,
2013-03-10 06:09:00,49.0,36.9,30.25,SW,225,1.8,2.0,63,0.00,,,0.00,WUHU216HW,2013-03-10 13:09:00,
2013-03-10 06:14:00,48.8,36.4,30.23,SW,225,1.3,2.0,62,0.00,,,0.00,WUHU216HW,2013-03-10 13:14:00,
2013-03-10 06:19:00,48.6,36.5,30.27,WSW,248,1.8,1.8,63,0.00,,,0.00,WUHU216HW,2013-03-10 13:19:00,
2013-03-10 06:24:00,48.6,36.5,30.27,SW,225,1.1,2.0,63,0.00,,,0.00,WUHU216HW,2013-03-10 13:24:00,
2013-03-10 06:29:00,48.6,36.5,30.28,WSW,248,0.9,2.0,63,0.00,,,0.00,WUHU216HW,2013-03-10 13:29:00,
2013-03-10 06:34:00,48.6,36.2,30.27,WSW,248,1.6,1.6,62,0.00,,,0.00,WUHU216HW,2013-03-10 13:34:00,
2013-03-10 06:39:00,48.4,36.4,30.28,SW,225,0.7,1.6,63,0.00,,,0.00,WUHU216HW,2013-03-10 13:39:00,
2013-03-10 06:45:00,48.4,36.4,30.24,SW,225,0.0,1.1,63,0.00,,,0.00,WUHU216HW,2013-03-10 13:45:00,
2013-03-10 06:50:00,48.2,36.3,30.25,WSW,248,0.4,1.1,63,0.00,,,0.00,WUHU216HW,2013-03-10 13:50:00,
2013-03-10 06:55:00,48.2,36.3,30.27,WSW,248,0.7,0.9,63,0.00,,,0.00,WUHU216HW,2013-03-10 13:55:00,
2013-03-10 07:00:00,48.2,36.6,30.25,SW,225,0.4,0.9,64,0.00,,,0.00,WUHU216HW,2013-03-10 14:00:00,
2013-03-10 07:05:00,48.1,36.5,30.26,SW,225,0.2,0.7,64,0.00,,,0.00,WUHU216HW,2013-03-10 14:05:00,
2013-03-10 07:10:00,48.1,36.5,30.27,WSW,248,0.4,1.3,64,0.00,,,0.00,WUHU216HW,2013-03-10 14:10:00,
2013-03-10 07:15:00,47.9,36.3,30.27,SSW,203,0.2,1.3,64,0.00,,,0.00,WUHU216HW,2013-03-10 14:15:00,
2013-03-10 07:20:00,47.5,35.9,30.26,SSW,203,0.9,1.1,64,0.00,,,0.00,WUHU216HW,2013-03-10 14:20:00,
2013-03-10 07:25:00,47.2,36.0,30.27,SSW,203,1.1,1.1,65,0.00,,,0.00,WUHU216HW,2013-03-10 14:25:00,
2013-03-10 07:30:00,47.2,36.0,30.27,SSW,203,0.7,1.1,65,0.00,,,0.00,WUHU216HW,2013-03-10 14:30:00,
2013-03-10 07:35:00,47.0,36.2,30.27,SSW,203,0.7,1.1,66,0.00,,,0.00,WUHU216HW,2013-03-10 14:35:00,
2013-03-10 07:40:00,46.8,36.0,30.27,SSW,203,0.2,0.7,66,0.00,,,0.00,WUHU216HW,2013-03-10 14:40:00,
2013-03-10 07:45:00,46.8,36.0,30.27,SW,225,1.1,1.1,66,0.00,,,0.00,WUHU216HW,2013-03-10 14:45:00,
2013-03-10 07:50:00,46.4,36.1,30.28,SW,225,0.7,1.1,67,0.00,,,0.00,WUHU216HW,2013-03-10 14:50:00,
2013-03-10 07:56:00,46.4,36.1,30.28,SW,225,1.1,1.1,67,0.00,,,0.00,WUHU216HW,2013-03-10 14:56:00,
2013-03-10 08:01:00,46.4,36.5,30.27,SSW,203,0.2,1.1,68,0.00,,,0.00,WUHU216HW,2013-03-10 15:01:00,
2013-03-10 08:06:00,46.6,36.6,30.27,SW,225,0.4,1.1,68,0.00,,,0.00,WUHU216HW,2013-03-10 15:06:00,
2013-03-10 08:11:00,46.8,36.8,30.27,SW,225,0.0,1.1,68,0.00,,,0.00,WUHU216HW,2013-03-10 15:11:00,
2013-03-10 08:16:00,47.0,37.0,30.29,SW,225,0.0,1.1,68,0.00,,,0.00,WUHU216HW,2013-03-10 15:16:00,
2013-03-10 08:21:00,47.2,37.5,30.27,SW,225,0.0,0.7,69,0.00,,,0.00,WUHU216HW,2013-03-10 15:21:00,
2013-03-10 08:26:00,47.5,37.9,30.28,SW,225,0.2,0.4,69,0.00,,,0.00,WUHU216HW,2013-03-10 15:26:00,
2013-03-10 08:31:00,47.9,38.2,30.29,SW,225,0.4,0.4,69,0.00,,,0.00,WUHU216HW,2013-03-10 15:31:00,
2013-03-10 08:36:00,48.2,38.2,30.28,SW,225,0.0,0.4,68,0.00,,,0.00,WUHU216HW,2013-03-10 15:36:00,
2013-03-10 08:41:00,48.8,38.6,30.28,SW,225,0.0,0.4,68,0.00,,,0.00,WUHU216HW,2013-03-10 15:41:00,
2013-03-10 08:46:00,49.1,39.0,30.28,SSW,203,1.1,1.1,68,0.00,,,0.00,WUHU216HW,2013-03-10 15:46:00,
2013-03-10 08:51:00,49.5,39.3,30.29,SSW,203,0.4,1.1,68,0.00,,,0.00,WUHU216HW,2013-03-10 15:51:00,
2013-03-10 08:57:00,50.0,39.9,30.28,South,180,0.0,0.9,68,0.00,,,0.00,WUHU216HW,2013-03-10 15:57:00,
2013-03-10 09:02:00,50.4,39.1,30.27,SE,135,0.0,0.9,65,0.00,,,0.00,WUHU216HW,2013-03-10 16:02:00,
2013-03-10 09:07:00,51.1,39.7,30.28,SE,135,0.4,0.4,65,0.00,,,0.00,WUHU216HW,2013-03-10 16:07:00,
2013-03-10 09:12:00,51.5,40.1,30.30,WSW,248,0.9,0.9,65,0.00,,,0.00,WUHU216HW,2013-03-10 16:12:00,
2013-03-10 09:17:00,52.2,41.1,30.29,WSW,248,0.0,1.1,66,0.00,,,0.00,WUHU216HW,2013-03-10 16:17:00,
2013-03-10 09:22:00,52.6,41.1,30.31,SSW,203,0.0,1.1,65,0.00,,,0.00,WUHU216HW,2013-03-10 16:22:00,
2013-03-10 09:27:00,53.1,41.2,30.31,East,90,0.0,0.4,64,0.00,,,0.00,WUHU216HW,2013-03-10 16:27:00,
2013-03-10 09:33:00,53.8,41.1,30.31,WSW,248,0.9,1.1,62,0.00,,,0.00,WUHU216HW,2013-03-10 16:33:00,
2013-03-10 09:38:00,54.7,42.0,30.31,WSW,248,0.0,1.6,62,0.00,,,0.00,WUHU216HW,2013-03-10 16:38:00,
2013-03-10 09:43:00,55.3,41.6,30.30,NNE,23,0.2,1.6,60,0.00,,,0.00,WUHU216HW,2013-03-10 16:43:00,
2013-03-10 09:48:00,55.8,42.1,30.31,ENE,68,0.7,1.1,60,0.00,,,0.00,WUHU216HW,2013-03-10 16:48:00,
2013-03-10 09:53:00,56.3,42.2,30.31,East,90,0.2,0.7,59,0.00,,,0.00,WUHU216HW,2013-03-10 16:53:00,
2013-03-10 09:58:00,56.7,42.1,30.30,ENE,68,0.9,0.9,58,0.00,,,0.00,WUHU216HW,2013-03-10 16:58:00,
2013-03-10 10:03:00,57.1,41.0,30.31,ENE,68,0.4,0.9,55,0.00,,,0.00,WUHU216HW,2013-03-10 17:03:00,
2013-03-10 10:08:00,57.4,41.4,30.31,NNE,23,1.8,2.2,55,0.00,,,0.00,WUHU216HW,2013-03-10 17:08:00,
2013-03-10 10:13:00,58.1,41.6,30.31,NNE,23,0.9,2.2,54,0.00,,,0.00,WUHU216HW,2013-03-10 17:13:00,
2013-03-10 10:18:00,58.7,41.6,30.32,ENE,68,0.0,1.1,53,0.00,,,0.00,WUHU216HW,2013-03-10 17:18:00,
2013-03-10 10:23:00,59.0,41.4,30.31,North,0,1.1,1.1,52,0.00,,,0.00,WUHU216HW,2013-03-10 17:23:00,
2013-03-10 10:28:00,59.4,42.2,30.31,East,90,1.8,1.8,53,0.00,,,0.00,WUHU216HW,2013-03-10 17:28:00,
2013-03-10 10:34:00,59.8,43.0,30.31,NNE,23,0.2,1.8,54,0.00,,,0.00,WUHU216HW,2013-03-10 17:34:00,
2013-03-10 10:39:00,59.9,43.7,30.28,ENE,68,1.8,1.8,55,0.00,,,0.00,WUHU216HW,2013-03-10 17:39:00,
2013-03-10 10:44:00,60.1,42.4,30.28,NE,45,2.0,2.0,52,0.00,,,0.00,WUHU216HW,2013-03-10 17:44:00,
2013-03-10 10:49:00,60.3,43.1,30.28,ENE,68,0.9,2.2,53,0.00,,,0.00,WUHU216HW,2013-03-10 17:49:00,
2013-03-10 10:54:00,60.7,43.4,30.28,East,90,0.2,2.2,53,0.00,,,0.00,WUHU216HW,2013-03-10 17:54:00,
2013-03-10 10:59:00,61.0,44.2,30.29,NNE,23,1.8,3.4,54,0.00,,,0.00,WUHU216HW,2013-03-10 17:59:00,
2013-03-10 11:04:00,61.4,45.0,30.28,ENE,68,2.5,3.4,55,0.00,,,0.00,WUHU216HW,2013-03-10 18:04:00,
2013-03-10 11:09:00,61.6,44.7,30.27,NW,315,0.4,2.5,54,0.00,,,0.00,WUHU216HW,2013-03-10 18:09:00,
2013-03-10 11:14:00,61.7,44.4,30.29,ESE,113,0.9,2.0,53,0.00,,,0.00,WUHU216HW,2013-03-10 18:14:00,
2013-03-10 11:19:00,61.9,44.1,30.29,NNE,23,1.3,2.0,52,0.00,,,0.00,WUHU216HW,2013-03-10 18:19:00,
2013-03-10 11:24:00,62.3,44.9,30.28,NNE,23,1.8,4.7,53,0.00,,,0.00,WUHU216HW,2013-03-10 18:24:00,
2013-03-10 11:30:00,62.3,46.4,30.28,NNW,338,2.5,4.7,56,0.00,,,0.00,WUHU216HW,2013-03-10 18:30:00,
2013-03-10 11:35:00,62.1,47.6,30.27,NNE,23,3.4,4.7,59,0.00,,,0.00,WUHU216HW,2013-03-10 18:35:00,
2013-03-10 11:40:00,61.7,47.4,30.28,NNE,23,3.8,3.8,59,0.00,,,0.00,WUHU216HW,2013-03-10 18:40:00,
2013-03-10 11:45:00,61.4,47.4,30.30,West,270,1.6,4.7,60,0.00,,,0.00,WUHU216HW,2013-03-10 18:45:00,
2013-03-10 11:50:00,61.6,48.4,30.27,NNE,23,2.0,4.7,62,0.00,,,0.00,WUHU216HW,2013-03-10 18:50:00,
2013-03-10 11:55:00,61.2,48.2,30.27,North,0,1.1,4.9,62,0.00,,,0.00,WUHU216HW,2013-03-10 18:55:00,
2013-03-10 12:00:00,60.8,48.3,30.27,NNE,23,2.5,4.9,63,0.00,,,0.00,WUHU216HW,2013-03-10 19:00:00,
2013-03-10 12:05:00,60.8,48.3,30.27,West,270,1.1,4.0,63,0.00,,,0.00,WUHU216HW,2013-03-10 19:05:00,
2013-03-10 12:10:00,60.8,48.3,30.28,North,0,1.8,3.8,63,0.00,,,0.00,WUHU216HW,2013-03-10 19:10:00,
2013-03-10 12:15:00,60.8,47.8,30.28,NNW,338,2.2,3.8,62,0.00,,,0.00,WUHU216HW,2013-03-10 19:15:00,
2013-03-10 12:20:00,60.8,47.0,30.28,NNW,338,1.8,4.7,60,0.00,,,0.00,WUHU216HW,2013-03-10 19:20:00,
2013-03-10 12:25:00,61.0,46.6,30.28,NE,45,3.4,4.7,59,0.00,,,0.00,WUHU216HW,2013-03-10 19:25:00,
2013-03-10 12:30:00,61.4,47.0,30.28,NNE,23,4.7,4.7,59,0.00,,,0.00,WUHU216HW,2013-03-10 19:30:00,
2013-03-10 12:35:00,61.4,46.5,30.28,NE,45,1.1,4.7,58,0.00,,,0.00,WUHU216HW,2013-03-10 19:35:00,
2013-03-10 12:41:00,61.6,46.6,30.29,East,90,2.5,2.5,58,0.00,,,0.00,WUHU216HW,2013-03-10 19:41:00,
2013-03-10 12:46:00,61.6,45.7,30.27,NNW,338,0.4,4.0,56,0.00,,,0.00,WUHU216HW,2013-03-10 19:46:00,
2013-03-10 12:51:00,61.9,47.0,30.30,NNW,338,1.1,4.0,58,0.00,,,0.00,WUHU216HW,2013-03-10 19:51:00,
2013-03-10 12:56:00,62.3,45.8,30.30,NE,45,1.3,5.1,55,0.00,,,0.00,WUHU216HW,2013-03-10 19:56:00,
2013-03-10 13:01:00,62.3,46.4,30.31,North,0,1.8,5.1,56,0.00,,,0.00,WUHU216HW,2013-03-10 20:01:00,
2013-03-10 13:06:00,62.3,46.8,30.30,ENE,68,2.5,2.7,57,0.00,,,0.00,WUHU216HW,2013-03-10 20:06:00,
2013-03-10 13:12:00,62.3,46.4,30.31,WSW,248,1.3,4.7,56,0.00,,,0.00,WUHU216HW,2013-03-10 20:12:00,
2013-03-10 13:17:00,62.5,45.6,30.30,North,0,4.5,4.7,54,0.00,,,0.00,WUHU216HW,2013-03-10 20:17:00,
2013-03-10 13:22:00,62.8,45.4,30.30,NE,45,1.1,4.5,53,0.00,,,0.00,WUHU216HW,2013-03-10 20:22:00,
2013-03-10 13:27:00,63.0,45.0,30.29,West,270,0.9,3.1,52,0.00,,,0.00,WUHU216HW,2013-03-10 20:27:00,
2013-03-10 13:32:00,63.0,44.1,30.29,NNE,23,3.4,3.4,50,0.00,,,0.00,WUHU216HW,2013-03-10 20:32:00,
2013-03-10 13:37:00,62.6,43.7,30.29,ENE,68,2.7,4.0,50,0.00,,,0.00,WUHU216HW,2013-03-10 20:37:00,
2013-03-10 13:42:00,62.5,42.4,30.29,NNW,338,3.4,4.7,48,0.00,,,0.00,WUHU216HW,2013-03-10 20:42:00,
2013-03-10 13:47:00,62.3,42.8,30.28,NNE,23,3.4,4.7,49,0.00,,,0.00,WUHU216HW,2013-03-10 20:47:00,
2013-03-10 13:52:00,62.3,43.4,30.29,NNW,338,3.4,4.3,50,0.00,,,0.00,WUHU216HW,2013-03-10 20:52:00,
2013-03-10 13:57:00,62.6,42.6,30.28,NW,315,0.4,4.0,48,0.00,,,0.00,WUHU216HW,2013-03-10 20:57:00,
2013-03-10 14:03:00,63.0,41.8,30.28,SE,135,1.1,4.0,46,0.00,,,0.00,WUHU216HW,2013-03-10 21:03:00,
2013-03-10 14:08:00,63.5,42.9,30.27,SSE,158,1.8,3.4,47,0.00,,,0.00,WUHU216HW,2013-03-10 21:08:00,
2013-03-10 14:13:00,63.5,45.0,30.26,North,0,2.7,3.4,51,0.00,,,0.00,WUHU216HW,2013-03-10 21:13:00,
2013-03-10 14:18:00,63.7,47.2,30.28,North,0,4.0,4.0,55,0.00,,,0.00,WUHU216HW,2013-03-10 21:18:00,
2013-03-10 14:23:00,63.7,48.2,30.27,West,270,0.7,4.7,57,0.00,,,0.00,WUHU216HW,2013-03-10 21:23:00,
2013-03-10 14:28:00,63.5,48.0,30.26,NNE,23,2.7,4.7,57,0.00,,,0.00,WUHU216HW,2013-03-10 21:28:00,
2013-03-10 14:33:00,63.4,48.2,30.27,ENE,68,0.9,4.5,58,0.00,,,0.00,WUHU216HW,2013-03-10 21:33:00,
2013-03-10 14:38:00,63.4,47.4,30.27,NNW,338,1.1,4.5,56,0.00,,,0.00,WUHU216HW,2013-03-10 21:38:00,
2013-03-10 14:43:00,63.4,47.8,30.27,North,0,0.9,3.6,57,0.00,,,0.00,WUHU216HW,2013-03-10 21:43:00,
2013-03-10 14:48:00,63.5,49.0,30.27,NE,45,1.1,2.5,59,0.00,,,0.00,WUHU216HW,2013-03-10 21:48:00,
2013-03-10 14:53:00,63.5,49.4,30.27,NNW,338,2.0,4.0,60,0.00,,,0.00,WUHU216HW,2013-03-10 21:53:00,
2013-03-10 14:58:00,63.2,49.1,30.28,NE,45,1.1,4.0,60,0.00,,,0.00,WUHU216HW,2013-03-10 21:58:00,
2013-03-10 15:03:00,62.6,49.4,30.28,NNW,338,2.0,4.3,62,0.00,,,0.00,WUHU216HW,2013-03-10 22:03:00,
2013-03-10 15:08:00,62.3,49.2,30.28,North,0,1.8,4.3,62,0.00,,,0.00,WUHU216HW,2013-03-10 22:08:00,
2013-03-10 15:13:00,61.9,49.2,30.27,West,270,1.6,4.7,63,0.00,,,0.00,WUHU216HW,2013-03-10 22:13:00,
2013-03-10 15:18:00,61.7,49.1,30.27,WNW,293,1.1,4.7,63,0.00,,,0.00,WUHU216HW,2013-03-10 22:18:00,
2013-03-10 15:23:00,61.9,49.2,30.25,NE,45,1.3,2.0,63,0.00,,,0.00,WUHU216HW,2013-03-10 22:23:00,
2013-03-10 15:29:00,61.9,48.8,30.26,NNW,338,0.4,1.8,62,0.00,,,0.00,WUHU216HW,2013-03-10 22:29:00,
2013-03-10 15:34:00,62.1,49.3,30.26,WNW,293,0.9,1.1,63,0.00,,,0.00,WUHU216HW,2013-03-10 22:34:00,
2013-03-10 15:39:00,62.1,49.3,30.27,NNW,338,0.7,1.1,63,0.00,,,0.00,WUHU216HW,2013-03-10 22:39:00,
2013-03-10 15:44:00,62.1,49.3,30.27,West,270,0.7,1.6,63,0.00,,,0.00,WUHU216HW,2013-03-10 22:44:00,
2013-03-10 15:49:00,61.9,48.8,30.26,NW,315,0.7,1.6,62,0.00,,,0.00,WUHU216HW,2013-03-10 22:49:00,
2013-03-10 15:54:00,61.6,49.3,30.27,NW,315,0.4,1.6,64,0.00,,,0.00,WUHU216HW,2013-03-10 22:54:00,
2013-03-10 15:59:00,61.2,49.0,30.27,WSW,248,0.4,1.6,64,0.00,,,0.00,WUHU216HW,2013-03-10 22:59:00,
2013-03-10 16:04:00,61.2,49.8,30.27,NNW,338,0.9,2.9,66,0.00,,,0.00,WUHU216HW,2013-03-10 23:04:00,
2013-03-10 16:09:00,60.8,48.6,30.27,NW,315,0.4,2.7,64,0.00,,,0.00,WUHU216HW,2013-03-10 23:09:00,
2013-03-10 16:15:00,60.8,48.6,30.27,North,0,0.9,2.2,64,0.00,,,0.00,WUHU216HW,2013-03-10 23:15:00,
2013-03-10 16:20:00,60.8,48.6,30.27,North,0,0.4,1.3,64,0.00,,,0.00,WUHU216HW,2013-03-10 23:20:00,
2013-03-10 16:25:00,60.8,49.1,30.26,NW,315,0.4,1.6,65,0.00,,,0.00,WUHU216HW,2013-03-10 23:25:00,
2013-03-10 16:30:00,61.0,48.8,30.27,NNW,338,0.2,1.6,64,0.00,,,0.00,WUHU216HW,2013-03-10 23:30:00,
2013-03-10 16:35:00,61.2,48.2,30.27,NNW,338,0.2,1.3,62,0.00,,,0.00,WUHU216HW,2013-03-10 23:35:00,
2013-03-10 16:40:00,61.2,48.2,30.22,NNW,338,1.1,1.3,62,0.00,,,0.00,WUHU216HW,2013-03-10 23:40:00,
2013-03-10 16:45:00,61.2,47.7,30.24,NW,315,0.2,1.1,61,0.00,,,0.00,WUHU216HW,2013-03-10 23:45:00,
2013-03-10 16:50:00,61.0,47.2,30.23,WNW,293,0.7,1.1,60,0.00,,,0.00,WUHU216HW,2013-03-10 23:50:00,
2013-03-10 16:55:00,60.8,45.0,30.23,WNW,293,0.4,1.1,56,0.00,,,0.00,WUHU216HW,2013-03-10 23:55:00,
2013-03-10 17:00:00,60.8,45.0,30.24,North,0,0.4,1.1,56,0.00,,,0.00,WUHU216HW,2013-03-11 00:00:00,
2013-03-10 17:05:00,60.7,43.4,30.24,NNW,338,0.4,1.1,53,0.00,,,0.00,WUHU216HW,2013-03-11 00:05:00,
2013-03-10 17:10:00,60.7,44.4,30.25,West,270,0.0,1.1,55,0.00,,,0.00,WUHU216HW,2013-03-11 00:10:00,
2013-03-10 17:15:00,60.7,43.9,30.23,East,90,0.0,0.4,54,0.00,,,0.00,WUHU216HW,2013-03-11 00:15:00,
2013-03-10 17:20:00,60.7,42.5,30.24,North,0,0.0,1.6,51,0.00,,,0.00,WUHU216HW,2013-03-11 00:20:00,
2013-03-10 17:25:00,60.5,42.8,30.24,NNE,23,1.1,1.6,52,0.00,,,0.00,WUHU216HW,2013-03-11 00:25:00,
2013-03-10 17:31:00,60.3,42.6,30.24,NNW,338,1.6,1.6,52,0.00,,,0.00,WUHU216HW,2013-03-11 00:31:00,
2013-03-10 17:36:00,60.1,41.5,30.24,NNW,338,0.9,1.6,50,0.00,,,0.00,WUHU216HW,2013-03-11 00:36:00,
2013-03-10 17:41:00,59.9,41.3,30.24,South,180,0.4,0.9,50,0.00,,,0.00,WUHU216HW,2013-03-11 00:41:00,
2013-03-10 17:46:00,59.8,40.6,30.23,NNW,338,0.0,0.4,49,0.00,,,0.00,WUHU216HW,2013-03-11 00:46:00,
2013-03-10 17:51:00,59.8,39.4,30.24,WNW,293,0.4,0.4,47,0.00,,,0.00,WUHU216HW,2013-03-11 00:51:00,
2013-03-10 17:56:00,59.6,39.2,30.23,NW,315,0.0,0.7,47,0.00,,,0.00,WUHU216HW,2013-03-11 00:56:00,
2013-03-10 18:01:00,59.6,40.4,30.23,North,0,0.0,0.7,49,0.00,,,0.00,WUHU216HW,2013-03-11 01:01:00,
2013-03-10 18:06:00,59.4,40.9,30.24,North,0,0.0,0.0,50,0.00,,,0.00,WUHU216HW,2013-03-11 01:06:00,
2013-03-10 18:11:00,59.4,40.9,30.24,NW,315,0.0,0.0,50,0.00,,,0.00,WUHU216HW,2013-03-11 01:11:00,
2013-03-10 18:16:00,59.4,40.9,30.24,West,270,0.0,0.0,50,0.00,,,0.00,WUHU216HW,2013-03-11 01:16:00,
2013-03-10 18:22:00,59.2,40.7,30.25,WSW,248,0.2,0.9,50,0.00,,,0.00,WUHU216HW,2013-03-11 01:22:00,
2013-03-10 18:27:00,59.0,41.0,30.24,SSW,203,0.4,0.9,51,0.00,,,0.00,WUHU216HW,2013-03-11 01:27:00,
2013-03-10 18:32:00,58.7,40.7,30.24,ESE,113,0.0,0.9,51,0.00,,,0.00,WUHU216HW,2013-03-11 01:32:00,
2013-03-10 18:37:00,58.5,41.0,30.24,ESE,113,0.0,0.2,52,0.00,,,0.00,WUHU216HW,2013-03-11 01:37:00,
2013-03-10 18:42:00,58.0,41.0,30.24,ESE,113,0.0,0.2,53,0.00,,,0.00,WUHU216HW,2013-03-11 01:42:00,
2013-03-10 18:47:00,57.6,40.6,30.24,South,180,0.4,0.4,53,0.00,,,0.00,WUHU216HW,2013-03-11 01:47:00,
2013-03-10 18:52:00,57.1,40.2,30.24,SSW,203,0.0,0.7,53,0.00,,,0.00,WUHU216HW,2013-03-11 01:52:00,
2013-03-10 18:57:00,56.5,40.1,30.25,SSW,203,0.7,0.7,54,0.00,,,0.00,WUHU216HW,2013-03-11 01:57:00,
2013-03-10 19:02:00,56.3,39.9,30.24,SSW,203,0.4,0.9,54,0.00,,,0.00,WUHU216HW,2013-03-11 02:02:00,
2013-03-10 19:08:00,56.2,39.7,30.23,SSW,203,0.4,0.9,54,0.00,,,0.00,WUHU216HW,2013-03-11 02:08:00,
2013-03-10 19:13:00,55.4,39.4,30.24,SSW,203,0.4,0.7,55,0.00,,,0.00,WUHU216HW,2013-03-11 02:13:00,
2013-03-10 19:18:00,54.7,39.2,30.24,SSW,203,0.2,0.7,56,0.00,,,0.00,WUHU216HW,2013-03-11 02:18:00,
2013-03-10 19:23:00,54.4,39.4,30.24,SW,225,1.1,1.1,57,0.00,,,0.00,WUHU216HW,2013-03-11 02:23:00,
2013-03-10 19:28:00,54.0,39.5,30.24,SW,225,1.1,1.1,58,0.00,,,0.00,WUHU216HW,2013-03-11 02:28:00,
2013-03-10 19:33:00,53.8,39.9,30.24,SW,225,0.4,1.1,59,0.00,,,0.00,WUHU216HW,2013-03-11 02:33:00,
2013-03-10 19:38:00,53.6,40.1,30.25,SW,225,0.7,1.1,60,0.00,,,0.00,WUHU216HW,2013-03-11 02:38:00,
2013-03-10 19:43:00,53.6,40.5,30.23,SW,225,0.7,1.1,61,0.00,,,0.00,WUHU216HW,2013-03-11 02:43:00,
2013-03-10 19:48:00,53.6,40.5,30.24,SW,225,0.7,1.1,61,0.00,,,0.00,WUHU216HW,2013-03-11 02:48:00,
2013-03-10 19:53:00,53.5,40.3,30.25,WSW,248,0.7,1.1,61,0.00,,,0.00,WUHU216HW,2013-03-11 02:53:00,
2013-03-10 19:58:00,53.3,40.1,30.25,SW,225,0.7,1.1,61,0.00,,,0.00,WUHU216HW,2013-03-11 02:58:00,
2013-03-10 20:03:00,53.3,40.1,30.24,WSW,248,1.1,1.1,61,0.00,,,0.00,WUHU216HW,2013-03-11 03:03:00,
2013-03-10 20:08:00,53.5,40.0,30.24,WSW,248,1.3,1.6,60,0.00,,,0.00,WUHU216HW,2013-03-11 03:08:00,
2013-03-10 20:13:00,53.5,39.5,30.24,WSW,248,1.3,1.6,59,0.00,,,0.00,WUHU216HW,2013-03-11 03:13:00,
2013-03-10 20:18:00,53.5,39.5,30.23,SW,225,0.4,1.3,59,0.00,,,0.00,WUHU216HW,2013-03-11 03:18:00,
2013-03-10 20:23:00,53.3,39.3,30.23,WSW,248,0.9,0.9,59,0.00,,,0.00,WUHU216HW,2013-03-11 03:23:00,
2013-03-10 20:28:00,53.3,39.8,30.22,West,270,2.0,2.0,60,0.00,,,0.00,WUHU216HW,2013-03-11 03:28:00,
2013-03-10 20:33:00,53.3,39.8,30.24,WSW,248,1.8,2.2,60,0.00,,,0.00,WUHU216HW,2013-03-11 03:33:00,
2013-03-10 20:38:00,53.5,40.3,30.25,WSW,248,1.3,2.2,61,0.00,,,0.00,WUHU216HW,2013-03-11 03:38:00,
2013-03-10 20:43:00,53.5,40.8,30.23,WSW,248,2.0,2.0,62,0.00,,,0.00,WUHU216HW,2013-03-11 03:43:00,
2013-03-10 20:48:00,53.5,40.8,30.23,WSW,248,1.1,2.0,62,0.00,,,0.00,WUHU216HW,2013-03-11 03:48:00,
2013-03-10 20:53:00,53.3,41.0,30.23,WSW,248,0.9,1.8,63,0.00,,,0.00,WUHU216HW,2013-03-11 03:53:00,
2013-03-10 20:59:00,53.1,41.2,30.24,WSW,248,0.9,1.8,64,0.00,,,0.00,WUHU216HW,2013-03-11 03:59:00,
2013-03-10 21:00:00,53.1,41.2,30.23,WSW,248,0.7,1.6,64,0.00,,,0.00,WUHU216HW,2013-03-11 04:00:00,
2013-03-10 21:05:00,52.9,41.4,30.23,SW,225,0.9,1.8,65,0.00,,,0.00,WUHU216HW,2013-03-11 04:05:00,
2013-03-10 21:11:00,52.9,41.4,30.23,WSW,248,2.0,2.0,65,0.00,,,0.00,WUHU216HW,2013-03-11 04:11:00,
2013-03-10 21:16:00,52.6,41.1,30.23,SW,225,1.3,2.0,65,0.00,,,0.00,WUHU216HW,2013-03-11 04:16:00,
2013-03-10 21:21:00,52.4,41.0,30.22,WSW,248,1.8,1.8,65,0.00,,,0.00,WUHU216HW,2013-03-11 04:21:00,
2013-03-10 21:26:00,52.2,40.8,30.24,WSW,248,1.3,1.8,65,0.00,,,0.00,WUHU216HW,2013-03-11 04:26:00,
2013-03-10 21:31:00,52.2,40.3,30.24,WSW,248,1.8,2.2,64,0.00,,,0.00,WUHU216HW,2013-03-11 04:31:00,
2013-03-10 21:36:00,52.2,40.3,30.22,WSW,248,1.8,2.2,64,0.00,,,0.00,WUHU216HW,2013-03-11 04:36:00,
2013-03-10 21:41:00,52.2,40.3,30.23,WSW,248,1.6,2.2,64,0.00,,,0.00,WUHU216HW,2013-03-11 04:41:00,
2013-03-10 21:46:00,52.2,40.3,30.23,WSW,248,1.8,2.0,64,0.00,,,0.00,WUHU216HW,2013-03-11 04:46:00,
2013-03-10 21:52:00,52.2,40.3,30.23,SW,225,1.6,1.8,64,0.00,,,0.00,WUHU216HW,2013-03-11 04:52:00,
2013-03-10 21:57:00,52.2,40.3,30.23,SW,225,1.1,1.8,64,0.00,,,0.00,WUHU216HW,2013-03-11 04:57:00,
2013-03-10 22:02:00,52.0,40.1,30.24,SW,225,1.6,1.8,64,0.00,,,0.00,WUHU216HW,2013-03-11 05:02:00,
2013-03-10 22:07:00,51.8,40.4,30.24,SW,225,1.6,2.0,65,0.00,,,0.00,WUHU216HW,2013-03-11 05:07:00,
2013-03-10 22:12:00,51.7,40.2,30.23,SW,225,1.8,2.0,65,0.00,,,0.00,WUHU216HW,2013-03-11 05:12:00,
2013-03-10 22:17:00,51.7,40.2,30.23,WSW,248,2.2,2.2,65,0.00,,,0.00,WUHU216HW,2013-03-11 05:17:00,
2013-03-10 22:22:00,51.5,40.1,30.23,SW,225,1.3,2.2,65,0.00,,,0.00,WUHU216HW,2013-03-11 05:22:00,
2013-03-10 22:27:00,51.5,40.1,30.22,SW,225,1.8,2.0,65,0.00,,,0.00,WUHU216HW,2013-03-11 05:27:00,
2013-03-10 22:32:00,51.3,39.9,30.22,SW,225,1.3,1.8,65,0.00,,,0.00,WUHU216HW,2013-03-11 05:32:00,
2013-03-10 22:37:00,51.3,39.5,30.22,SW,225,1.6,1.8,64,0.00,,,0.00,WUHU216HW,2013-03-11 05:37:00,
2013-03-10 22:42:00,51.1,39.3,30.22,SW,225,2.2,2.2,64,0.00,,,0.00,WUHU216HW,2013-03-11 05:42:00,
2013-03-10 22:47:00,51.3,39.5,30.22,SW,225,1.8,2.2,64,0.00,,,0.00,WUHU216HW,2013-03-11 05:47:00,
2013-03-10 22:52:00,51.5,39.7,30.22,SW,225,1.3,2.0,64,0.00,,,0.00,WUHU216HW,2013-03-11 05:52:00,
2013-03-10 22:57:00,51.5,39.2,30.22,SW,225,1.3,1.8,63,0.00,,,0.00,WUHU216HW,2013-03-11 05:57:00,
2013-03-10 23:02:00,51.5,39.2,30.22,WSW,248,0.7,1.8,63,0.00,,,0.00,WUHU216HW,2013-03-11 06:02:00,
2013-03-10 23:07:00,51.5,38.9,30.22,WSW,248,0.4,1.8,62,0.00,,,0.00,WUHU216HW,2013-03-11 06:07:00,
2013-03-10 23:13:00,51.5,38.9,30.22,SW,225,0.9,1.1,62,0.00,,,0.00,WUHU216HW,2013-03-11 06:13:00,
2013-03-10 23:18:00,51.7,38.6,30.23,WSW,248,0.7,1.6,61,0.00,,,0.00,WUHU216HW,2013-03-11 06:18:00,
2013-03-10 23:23:00,51.7,38.6,30.22,SW,225,0.4,1.6,61,0.00,,,0.00,WUHU216HW,2013-03-11 06:23:00,
2013-03-10 23:28:00,51.8,38.3,30.22,SW,225,0.7,0.9,60,0.00,,,0.00,WUHU216HW,2013-03-11 06:28:00,
2013-03-10 23:33:00,51.8,38.3,30.22,SW,225,0.9,1.1,60,0.00,,,0.00,WUHU216HW,2013-03-11 06:33:00,
2013-03-10 23:38:00,51.8,38.3,30.22,SW,225,0.7,1.1,60,0.00,,,0.00,WUHU216HW,2013-03-11 06:38:00,
2013-03-10 23:43:00,51.8,38.3,30.21,SW,225,1.1,1.1,60,0.00,,,0.00,WUHU216HW,2013-03-11 06:43:00,
2013-03-10 23:48:00,51.8,37.9,30.20,SW,225,1.1,1.1,59,0.00,,,0.00,WUHU216HW,2013-03-11 06:48:00,
2013-03-10 23:53:00,52.0,38.1,30.22,SW,225,0.7,1.1,59,0.00,,,0.00,WUHU216HW,2013-03-11 06:53:00,
2013-03-10 23:58:00,52.2,37.8,30.22,SW,225,0.9,1.1,58,0.00,,,0.00,WUHU216HW,2013-03-11 06:58:00,